GW7368 Weather Reports


Display with metric or nautical units.
time (UTC)temp
F
wind
direction
speed
MPH
gust
MPH
rain 1hr
in
rain 24hr
in
rain mn
in
humidity
%
barometer
mb
20260906124324 64 0 0.0 2.0 0.00 0.00 0.00 99 1019.3
20260906123822 64 17 0.0 2.0 0.00 0.00 0.00 99 1019.1
20260906123318 64 341 1.0 2.0 0.00 0.00 0.00 99 1019.0
20260906122817 63 343 1.0 2.0 0.00 0.00 0.00 99 1018.8
20260906122312 63 348 1.0 2.0 0.00 0.00 0.00 99 1018.7
20260906121809 63 330 0.0 1.0 0.00 0.00 0.00 99 1018.9
20260906121305 63 4 1.0 1.0 0.00 0.00 0.00 99 1018.9
20260906120801 62 8 0.0 2.0 0.00 0.00 0.00 99 1019.1
20260906120257 62 13 1.0 2.0 0.00 0.00 0.00 99 1019.0
20260906115753 62 0 0.0 2.0 0.00 0.00 0.00 99 1019.0
20260906115247 62 356 1.0 2.0 0.00 0.00 0.00 99 1018.9
20260906114747 62 0 0.0 2.0 0.00 0.00 0.00 99 1018.6
20260906114242 62 343 0.0 2.0 0.00 0.00 0.00 98 1018.4
20260906113738 62 0 0.0 2.0 0.00 0.00 0.00 98 1018.6
20260906113237 62 1 0.0 1.0 0.00 0.00 0.00 98 1018.4
20260906112736 62 359 0.0 1.0 0.00 0.00 0.00 98 1018.4
20260906112233 62 6 0.0 1.0 0.00 0.00 0.00 98 1018.2
20260906111733 62 336 0.0 1.0 0.00 0.00 0.00 98 1018.3
20260906111227 62 0 0.0 1.0 0.00 0.00 0.00 98 1018.3
20260906110722 62 352 0.0 2.0 0.00 0.00 0.00 98 1018.4
20260906110218 62 11 2.0 2.0 0.00 0.00 0.00 98 1018.2
20260906105717 62 0 1.0 2.0 0.00 0.00 0.00 98 1018.2
20260906105213 62 0 2.0 2.0 0.00 0.00 0.00 98 1018.1
20260906104713 62 359 2.0 2.0 0.00 0.00 0.00 98 1018.1
20260906104212 62 13 2.0 2.0 0.00 0.00 0.00 98 1018.1
20260906103709 62 8 2.0 2.0 0.00 0.00 0.00 98 1018.1
20260906103205 62 357 1.0 2.0 0.00 0.00 0.00 98 1018.0
20260906102700 62 9 0.0 2.0 0.00 0.00 0.00 98 1017.8
20260906102200 62 3 1.0 2.0 0.00 0.00 0.00 97 1018.2
20260906101700 62 13 1.0 1.0 0.00 0.00 0.00 97 1018.2
20260906101155 62 16 1.0 2.0 0.00 0.00 0.00 97 1018.1
20260906100651 62 351 1.0 2.0 0.00 0.00 0.00 97 1018.1
20260906100150 62 339 1.0 2.0 0.00 0.00 0.00 98 1018.3
20260906095645 62 351 0.0 2.0 0.00 0.00 0.00 97 1018.2
20260906095141 62 12 0.0 0.0 0.00 0.00 0.00 97 1018.2
20260906094639 62 359 1.0 2.0 0.00 0.00 0.00 97 1018.1
20260906094136 62 355 1.0 2.0 0.00 0.00 0.00 96 1017.9
20260906093632 63 347 0.0 2.0 0.00 0.00 0.00 96 1017.9
20260906093131 63 338 1.0 2.0 0.00 0.00 0.00 96 1018.1
20260906092627 63 343 2.0 2.0 0.00 0.00 0.00 96 1018.0
20260906092121 63 345 1.0 2.0 0.00 0.00 0.00 96 1018.0
20260906091618 63 1 2.0 2.0 0.00 0.00 0.00 95 1017.8
20260906091114 63 333 1.0 2.0 0.00 0.00 0.00 95 1017.8
20260906090615 64 334 0.0 2.0 0.00 0.00 0.00 95 1017.8
20260906090114 64 357 2.0 2.0 0.00 0.00 0.00 95 1017.7
20260906085614 64 345 2.0 2.0 0.00 0.00 0.00 96 1017.7
20260906085108 64 8 1.0 2.0 0.00 0.00 0.00 97 1018.0
20260906084603 64 0 1.0 2.0 0.00 0.00 0.00 98 1018.0
20260906084101 64 351 2.0 2.0 0.00 0.00 0.00 98 1018.0
20260906083557 63 346 1.0 2.0 0.00 0.00 0.00 98 1018.0
20260906083057 63 346 2.0 2.0 0.00 0.00 0.00 99 1017.8
20260906082552 63 337 1.0 2.0 0.00 0.00 0.00 98 1017.9
20260906082048 63 347 1.0 2.0 0.00 0.00 0.00 99 1017.9
20260906081544 63 349 1.0 2.0 0.00 0.00 0.00 98 1018.2
20260906081039 62 332 1.0 2.0 0.00 0.00 0.00 98 1017.7
20260906080536 62 11 0.0 2.0 0.00 0.00 0.00 97 1017.6
20260906080032 62 5 1.0 1.0 0.00 0.00 0.00 97 1017.6
20260906075531 62 3 1.0 1.0 0.00 0.00 0.00 98 1017.6
20260906075026 62 6 0.0 2.0 0.00 0.00 0.00 98 1017.8
20260906074521 62 358 1.0 2.0 0.00 0.00 0.00 98 1017.7
20260906074019 62 12 0.0 1.0 0.00 0.00 0.00 98 1017.8
20260906073514 62 6 0.0 1.0 0.00 0.00 0.00 98 1017.7
20260906073011 62 10 0.0 1.0 0.00 0.00 0.00 98 1017.8
20260906072505 62 339 1.0 1.0 0.00 0.00 0.00 97 1017.9
20260906072001 62 321 0.0 2.0 0.00 0.00 0.00 97 1017.8
20260906071457 62 351 1.0 2.0 0.00 0.00 0.00 96 1017.8
20260906070952 62 358 1.0 1.0 0.00 0.00 0.00 97 1017.9
20260906070448 62 314 1.0 1.0 0.00 0.00 0.00 96 1017.6
20260906065944 62 322 1.0 2.0 0.00 0.00 0.00 96 1017.9
20260906065443 63 330 0.0 2.0 0.00 0.00 0.00 97 1017.8
20260906064939 63 323 0.0 1.0 0.00 0.00 0.00 97 1017.8
20260906064436 63 339 1.0 2.0 0.00 0.00 0.00 97 1017.7
20260906063936 63 332 1.0 1.0 0.00 0.00 0.00 97 1018.1
20260906063431 63 335 1.0 2.0 0.00 0.00 0.00 97 1018.1
20260906062926 63 338 1.0 2.0 0.00 0.00 0.00 96 1018.1
20260906062427 63 327 0.0 2.0 0.00 0.00 0.00 96 1018.0
20260906061921 63 327 1.0 2.0 0.00 0.00 0.00 96 1017.7
20260906061418 63 350 1.0 2.0 0.00 0.00 0.00 96 1017.8
20260906060918 63 343 1.0 2.0 0.00 0.00 0.00 95 1017.8
20260906060415 63 334 0.0 2.0 0.00 0.00 0.00 95 1017.8
20260906055911 63 326 1.0 2.0 0.00 0.00 0.00 95 1017.8
20260906055407 63 320 1.0 2.0 0.00 0.00 0.00 95 1017.8
20260906054902 63 348 2.0 2.0 0.00 0.00 0.00 95 1017.9
20260906054356 63 314 1.0 2.0 0.00 0.00 0.00 94 1017.7
20260906053853 64 353 1.0 2.0 0.00 0.00 0.00 94 1017.7
20260906053348 64 345 0.0 2.0 0.00 0.00 0.00 93 1018.0
20260906052844 64 345 1.0 2.0 0.00 0.00 0.00 93 1017.9
20260906052340 64 339 2.0 2.0 0.00 0.00 0.00 93 1017.9
20260906051837 64 340 0.0 2.0 0.00 0.00 0.00 93 1017.8
20260906051336 64 344 1.0 2.0 0.00 0.00 0.00 92 1017.8
20260906050832 64 318 0.0 2.0 0.00 0.00 0.00 92 1017.6
20260906050327 65 329 1.0 1.0 0.00 0.00 0.00 91 1017.6
20260906045826 65 322 1.0 1.0 0.00 0.00 0.00 91 1017.6
20260906045320 65 343 0.0 1.0 0.00 0.00 0.00 90 1017.4
20260906044817 65 341 0.0 2.0 0.00 0.00 0.00 90 1017.5
20260906044317 65 350 2.0 2.0 0.00 0.00 0.00 90 1017.4
20260906043812 65 7 2.0 2.0 0.00 0.00 0.00 90 1017.5
20260906043309 65 341 0.0 2.0 0.00 0.00 0.00 90 1017.5
20260906042808 65 34 0.0 1.0 0.00 0.00 0.00 89 1017.5
20260906042308 65 15 0.0 1.0 0.00 0.00 0.00 88 1017.4
20260906041803 65 349 1.0 1.0 0.00 0.00 0.00 87 1017.1
20260906041258 66 9 2.0 2.0 0.00 0.00 0.00 87 1017.2
20260906040753 66 350 0.0 1.0 0.00 0.00 0.00 86 1017.3
20260906040248 66 3 0.0 1.0 0.00 0.00 0.00 85 1017.1
20260906035744 67 24 1.0 1.0 0.00 0.00 0.00 85 1017.1
20260906035240 67 55 0.0 1.0 0.00 0.00 0.00 84 1017.1
20260906034739 67 8 0.0 1.0 0.00 0.00 0.00 84 1017.1
20260906034234 67 35 0.0 1.0 0.00 0.00 0.00 84 1017.0
20260906033730 67 56 0.0 1.0 0.00 0.00 0.00 84 1017.0
20260906033230 68 50 0.0 2.0 0.00 0.00 0.00 84 1017.0
20260906032727 68 58 0.0 2.0 0.00 0.00 0.00 85 1017.0
20260906032226 68 28 1.0 2.0 0.00 0.00 0.00 86 1016.8
20260906031722 68 340 0.0 2.0 0.00 0.00 0.00 87 1017.2
20260906031217 68 116 1.0 2.0 0.00 0.00 0.00 88 1017.1
20260906030717 68 37 2.0 3.0 0.00 0.00 0.00 89 1017.0
20260906030212 68 325 0.0 2.0 0.00 0.00 0.00 89 1017.1
20260906025711 68 37 0.0 2.0 0.00 0.00 0.00 89 1016.9
20260906025206 68 52 1.0 2.0 0.00 0.00 0.00 89 1016.7
20260906024705 68 46 0.0 2.0 0.00 0.00 0.00 88 1016.7
20260906024204 68 331 0.0 1.0 0.00 0.00 0.00 88 1016.8
20260906023701 68 27 0.0 2.0 0.00 0.00 0.00 87 1016.8
20260906023201 68 48 0.0 1.0 0.00 0.00 0.00 87 1016.9
20260906022655 68 54 0.0 1.0 0.00 0.00 0.00 87 1016.7
20260906022151 69 95 1.0 1.0 0.00 0.00 0.00 87 1016.7
20260906021647 69 50 0.0 2.0 0.00 0.00 0.00 87 1016.7
20260906021146 69 66 0.0 1.0 0.00 0.00 0.00 86 1016.3
20260906020641 69 37 0.0 1.0 0.00 0.00 0.00 86 1016.4
20260906020136 69 79 0.0 2.0 0.00 0.00 0.00 86 1016.2
20260906015636 69 108 0.0 2.0 0.00 0.00 0.00 85 1016.2
20260906015135 69 16 0.0 3.0 0.00 0.00 0.00 85 1016.3
20260906014635 69 75 0.0 3.0 0.00 0.00 0.00 85 1016.3
20260906014131 69 44 0.0 2.0 0.00 0.00 0.00 85 1016.3
20260906013626 69 82 0.0 2.0 0.00 0.00 0.00 85 1016.2
20260906013122 69 94 1.0 2.0 0.00 0.00 0.00 85 1016.2
20260906012616 70 141 1.0 1.0 0.00 0.00 0.00 84 1016.2
20260906012116 70 110 0.0 1.0 0.00 0.00 0.00 84 1016.3
20260906011612 70 51 0.0 2.0 0.00 0.00 0.00 84 1016.2
20260906011113 70 78 0.0 2.0 0.00 0.00 0.00 84 1016.4
20260906010608 70 34 1.0 2.0 0.00 0.00 0.00 84 1016.5
20260906010104 71 51 0.0 2.0 0.00 0.00 0.00 84 1016.5
20260906005603 71 61 1.0 3.0 0.00 0.00 0.00 83 1016.5
20260906005103 71 130 1.0 2.0 0.00 0.00 0.00 84 1016.5
20260906004602 71 45 1.0 2.0 0.00 0.00 0.00 84 1016.7
20260906004057 71 13 2.0 3.0 0.00 0.00 0.00 84 1016.6
20260906003552 71 354 0.0 2.0 0.00 0.00 0.00 83 1016.5
20260906003048 71 222 2.0 2.0 0.00 0.00 0.00 83 1016.4
20260906002548 71 36 1.0 2.0 0.00 0.00 0.00 81 1016.5
20260906002043 72 325 1.0 1.0 0.00 0.00 0.00 81 1016.5
20260906001539 72 352 0.0 2.0 0.00 0.00 0.00 81 1016.6
20260906001039 72 205 0.0 2.0 0.00 0.00 0.00 81 1016.7
20260906000535 73 72 2.0 2.0 0.00 0.00 0.00 79 1016.5
20260906000030 73 15 2.0 2.0 0.00 0.00 0.00 79 1016.5
20260905235529 73 42 0.0 2.0 0.00 0.00 0.00 78 1016.3
20260905235025 73 59 0.0 3.0 0.00 0.00 0.00 76 1016.3
20260905234521 74 9 0.0 4.0 0.00 0.00 0.00 75 1016.1
20260905234021 75 32 2.0 2.0 0.00 0.00 0.00 74 1016.1
20260905233515 75 74 0.0 4.0 0.00 0.00 0.00 74 1016.0
20260905233015 76 26 2.0 2.0 0.00 0.00 0.00 73 1016.2
20260905232510 76 57 0.0 2.0 0.00 0.00 0.00 72 1016.3
20260905232006 77 52 4.0 4.0 0.00 0.00 0.00 71 1016.3
20260905231501 77 31 0.0 2.0 0.00 0.00 0.00 71 1016.5
20260905230958 77 17 1.0 2.0 0.00 0.00 0.00 71 1016.4
20260905230456 78 41 1.0 2.0 0.00 0.00 0.00 71 1016.4
20260905225954 79 27 1.0 3.0 0.00 0.00 0.00 69 1016.3
20260905225449 79 27 0.0 2.0 0.00 0.00 0.00 69 1016.3
20260905224945 79 9 1.0 2.0 0.00 0.00 0.00 69 1016.1
20260905224440 78 104 1.0 2.0 0.00 0.00 0.00 69 1016.1
20260905223939 78 55 2.0 2.0 0.00 0.00 0.00 69 1016.2
20260905223437 79 112 0.0 1.0 0.00 0.00 0.00 69 1016.2
20260905222932 78 20 0.0 3.0 0.00 0.00 0.00 70 1015.7
20260905222432 78 29 0.0 3.0 0.00 0.00 0.00 69 1015.7
20260905221927 78 54 0.0 2.0 0.00 0.00 0.00 71 1015.7
20260905221424 78 48 2.0 5.0 0.00 0.00 0.00 71 1015.6
20260905220920 78 89 0.0 3.0 0.00 0.00 0.00 72 1015.7
20260905220416 77 99 1.0 3.0 0.00 0.00 0.00 71 1015.7
20260905215914 78 109 3.0 4.0 0.00 0.00 0.00 71 1015.9
20260905215410 78 54 1.0 3.0 0.00 0.00 0.00 74 1015.7
20260905214907 78 332 1.0 3.0 0.00 0.00 0.00 73 1015.7
20260905214402 78 328 1.0 2.0 0.00 0.00 0.00 72 1015.4
20260905213856 78 347 2.0 3.0 0.00 0.00 0.00 71 1015.6
20260905213353 79 43 2.0 4.0 0.00 0.00 0.00 70 1015.5
20260905212853 79 7 0.0 3.0 0.00 0.00 0.00 68 1015.7
20260905212348 80 346 0.0 2.0 0.00 0.00 0.00 71 1015.7
20260905211847 79 8 2.0 3.0 0.00 0.00 0.00 72 1015.5
20260905211343 78 31 0.0 2.0 0.00 0.00 0.00 73 1015.6
20260905210840 77 348 0.0 3.0 0.00 0.00 0.00 73 1015.4
20260905210340 79 39 3.0 7.0 0.00 0.00 0.00 71 1015.3
20260905205838 79 33 0.0 5.0 0.00 0.00 0.00 72 1015.4
20260905205333 78 62 0.0 2.0 0.00 0.00 0.00 74 1015.6
20260905204832 78 27 0.0 2.0 0.00 0.00 0.00 73 1015.4
20260905204329 79 24 2.0 6.0 0.00 0.00 0.00 71 1015.5
20260905203827 80 15 2.0 4.0 0.00 0.00 0.00 72 1015.6
20260905203323 79 22 1.0 4.0 0.00 0.00 0.00 71 1015.5
20260905202819 80 7 2.0 3.0 0.00 0.00 0.00 72 1015.9
20260905202313 81 25 2.0 6.0 0.00 0.00 0.00 69 1015.5
20260905201809 79 315 0.0 2.0 0.00 0.00 0.00 72 1015.6
20260905201304 81 17 2.0 3.0 0.00 0.00 0.00 68 1015.5
20260905200759 82 19 1.0 2.0 0.00 0.00 0.00 70 1015.5
20260905200255 80 97 0.0 4.0 0.00 0.00 0.00 73 1015.5
20260905195752 80 36 1.0 2.0 0.00 0.00 0.00 73 1015.4
20260905195248 80 19 2.0 2.0 0.00 0.00 0.00 73 1015.3
20260905194743 80 15 0.0 3.0 0.00 0.00 0.00 70 1015.6
20260905194243 80 339 0.0 3.0 0.00 0.00 0.00 71 1015.6
20260905193742 81 6 2.0 4.0 0.00 0.00 0.00 69 1015.5
20260905193237 80 4 0.0 2.0 0.00 0.00 0.00 73 1015.4
20260905192733 79 10 0.0 2.0 0.00 0.00 0.00 73 1015.5
20260905192229 80 19 2.0 2.0 0.00 0.00 0.00 71 1015.6
20260905191728 81 358 2.0 2.0 0.00 0.00 0.00 70 1015.7
20260905191226 81 7 0.0 4.0 0.00 0.00 0.00 69 1015.5
20260905190726 81 119 0.0 2.0 0.00 0.00 0.00 70 1015.5
20260905190224 80 19 0.0 3.0 0.00 0.00 0.00 70 1015.3
20260905185724 80 31 2.0 2.0 0.00 0.00 0.00 71 1015.5
20260905185218 80 0 0.0 3.0 0.00 0.00 0.00 68 1015.6
20260905184713 81 359 0.0 2.0 0.00 0.00 0.00 71 1015.6
20260905184212 80 351 2.0 3.0 0.00 0.00 0.00 70 1015.7
20260905183712 80 11 2.0 3.0 0.00 0.00 0.00 69 1015.9
20260905183207 81 342 2.0 3.0 0.00 0.00 0.00 69 1015.7
20260905182706 82 26 2.0 3.0 0.00 0.00 0.00 69 1015.5
20260905182206 81 354 1.0 4.0 0.00 0.00 0.00 70 1015.6
20260905181702 82 31 2.0 3.0 0.00 0.00 0.00 72 1015.7
20260905181200 81 15 0.0 2.0 0.00 0.00 0.00 73 1015.6
20260905180655 80 348 0.0 3.0 0.00 0.00 0.00 74 1015.9
20260905180151 81 31 1.0 3.0 0.00 0.00 0.00 74 1016.0
20260905175650 80 20 0.0 2.0 0.00 0.00 0.00 76 1016.0
20260905175145 79 48 0.0 2.0 0.00 0.00 0.00 76 1015.9
20260905174641 79 19 0.0 2.0 0.00 0.00 0.00 77 1016.0
20260905174136 78 2 0.0 3.0 0.00 0.00 0.00 78 1015.9
20260905173632 78 26 0.0 3.0 0.00 0.00 0.00 77 1015.7
20260905173128 78 334 2.0 3.0 0.00 0.00 0.00 78 1016.0
20260905172626 78 14 1.0 2.0 0.00 0.00 0.00 79 1016.1
20260905172121 77 16 2.0 2.0 0.00 0.00 0.00 79 1015.9
20260905171618 77 27 2.0 3.0 0.00 0.00 0.00 78 1016.2
20260905171114 77 21 1.0 2.0 0.00 0.00 0.00 80 1016.1
20260905170610 78 15 2.0 2.0 0.00 0.00 0.00 78 1016.0
20260905170106 78 15 0.0 2.0 0.00 0.00 0.00 78 1015.9
20260905165605 78 349 1.0 2.0 0.00 0.00 0.00 81 1015.9
20260905165101 77 34 1.0 2.0 0.00 0.00 0.00 81 1016.0
20260905164555 77 2 1.0 3.0 0.00 0.00 0.00 81 1016.0
20260905164049 76 346 0.0 2.0 0.00 0.00 0.00 84 1016.2
20260905163546 76 329 0.0 2.0 0.00 0.00 0.00 83 1016.2
20260905163042 75 10 1.0 2.0 0.00 0.00 0.00 84 1016.0
20260905162538 75 16 0.0 2.0 0.00 0.00 0.00 85 1016.1
20260905162032 76 0 0.0 2.0 0.00 0.00 0.00 85 1016.0
20260905161532 75 3 1.0 2.0 0.00 0.00 0.00 84 1016.1
20260905161030 75 30 2.0 2.0 0.00 0.00 0.00 84 1016.1
20260905160528 75 356 1.0 2.0 0.00 0.00 0.00 85 1016.1
20260905160028 75 12 2.0 2.0 0.00 0.00 0.00 84 1016.0
20260905155528 75 9 1.0 2.0 0.00 0.00 0.00 85 1016.2
20260905155026 75 6 0.0 2.0 0.00 0.00 0.00 84 1016.2
20260905154522 75 304 1.0 2.0 0.00 0.00 0.00 84 1015.7
20260905154018 75 28 0.0 2.0 0.00 0.00 0.00 86 1015.6
20260905153514 74 7 1.0 3.0 0.00 0.00 0.00 86 1015.9
20260905153014 74 354 0.0 2.0 0.00 0.00 0.00 87 1016.0
20260905152513 73 2 0.0 2.0 0.00 0.00 0.00 89 1016.2
20260905152008 73 21 0.0 1.0 0.00 0.00 0.00 90 1016.0
20260905151504 73 40 0.0 1.0 0.00 0.00 0.00 90 1015.9
20260905150959 72 38 1.0 4.0 0.00 0.00 0.00 90 1016.0
20260905150454 72 343 0.0 3.0 0.00 0.00 0.00 92 1015.7
20260905145950 72 324 0.0 1.0 0.00 0.00 0.00 92 1015.6
20260905145445 72 339 2.0 2.0 0.00 0.00 0.00 92 1015.7
20260905144944 72 333 0.0 1.0 0.00 0.00 0.00 92 1015.5
20260905144440 72 0 0.0 2.0 0.00 0.00 0.00 92 1015.5
20260905143939 72 22 2.0 2.0 0.00 0.00 0.00 92 1015.4
20260905143438 72 354 1.0 2.0 0.00 0.00 0.00 92 1015.4
20260905142933 72 351 1.0 2.0 0.00 0.00 0.00 92 1015.3
20260905142432 72 352 2.0 2.0 0.00 0.00 0.00 92 1015.3
20260905141928 72 160 0.0 2.0 0.00 0.00 0.00 92 1015.1
20260905141428 72 341 2.0 3.0 0.00 0.00 0.00 93 1015.0
20260905140924 72 23 1.0 2.0 0.00 0.00 0.00 93 1014.9
20260905140419 72 19 1.0 1.0 0.00 0.00 0.00 93 1014.9
20260905135918 72 21 1.0 1.0 0.00 0.00 0.00 93 1014.9
20260905135414 72 156 0.0 2.0 0.00 0.00 0.00 93 1014.9
20260905134909 72 333 1.0 2.0 0.00 0.00 0.00 94 1015.1
20260905134408 72 12 0.0 1.0 0.00 0.00 0.00 94 1014.9
20260905133903 72 41 0.0 2.0 0.00 0.00 0.00 94 1015.0
20260905133357 72 9 2.0 2.0 0.00 0.00 0.00 95 1015.1
20260905132857 71 342 2.0 3.0 0.00 0.00 0.00 95 1014.9
20260905132352 71 12 1.0 2.0 0.00 0.00 0.00 95 1014.7
20260905131852 71 19 1.0 2.0 0.00 0.00 0.00 96 1015.0
20260905131348 71 340 1.0 1.0 0.00 0.00 0.00 97 1014.9
20260905130843 71 2 0.0 1.0 0.00 0.00 0.00 98 1015.2
20260905130341 71 346 0.0 1.0 0.00 0.00 0.00 98 1015.1
20260905125837 70 297 0.0 1.0 0.00 0.00 0.00 99 1015.3
20260905125332 70 328 1.0 2.0 0.00 0.00 0.00 99 1015.3
20260905124828 70 19 0.0 2.0 0.00 0.00 0.00 99 1014.8